Theta_e
324 325 325 325 325 329 340 341 340 339 338 338 336 335 334 333 332 333 333 335 336 336 336 336 335 335 335 336 335 335 334 333
319 321 321 321 320 320 322 330 327 329 333 334 328 325 330 328 331 331 329 329 327 331 333 333 334 335 334 334 334 334 333 333
318 317 318 318 318 318 317 316 319 320 321 320 318 320 321 326 325 329 323 320 321 320 323 328 329 331 333 332 329 329 330 332
317 315 315 316 316 315 316 316 315 313 313 312 312 311 312 312 314 315 315 317 323 322 320 320 322 322 323 326 326 327 326 325
315 313 314 315 315 315 314 314 314 312 311 311 312 314 314 314 315 315 314 313 313 315 314 318 322 323 325 324 323 323 323 324
313 313 314 314 313 312 313 310 310 310 309 309 309 309 309 309 310 312 312 315 315 315 315 317 317 318 319 319 318 319 320 320
312 313 313 312 311 310 310 309 307 307 306 306 306 307 309 309 309 309 310 311 312 315 314 316 317 316 316 316 315 316 316 316
311 310 310 310 309 307 306 306 306 306 306 306 306 307 310 310 311 312 313 313 313 312 312 312 313 313 312 313 313 314 313 314
308 307 307 307 306 306 306 305 306 305 304 305 305 305 308 310 307 306 306 307 307 308 309 306 305 304 302 307 309 310 312 310
304 303 304 305 305 305 305 304 303 303 304 304 303 304 304 304 304 304 305 306 305 305 304 303 302 301 301 303 303 304 307 308
303 302 303 304 304 303 303 302 302 301 301 302 301 301 302 302 302 302 302 302 302 301 302 302 301 301 301 302 302 302 303 304
301 300 302 303 303 302 301 301 300 300 300 300 300 300 300 300 301 301 300 301 301 301 301 301 301 301 301 302 303 303 302 303
300 300 300 301 301 300 300 299 299 300 300 300 300 299 299 299 299 299 299 300 301 301 301 301 301 300 301 302 302 304 303 304
298 299 300 300 300 299 299 300 300 300 300 300 300 300 300 300 300 300 300 300 300 300 299 300 300 300 301 302 302 303 305 302
297 296 296 298 299 300 300 300 300 300 300 300 300 300 300 300 300 300 300 300 301 301 301 302 302 301 301 302 302 302 303 303
296 295 296 298 299 300 299 299 300 299 299 299 299 299 299 299 298 298 297 297 298 298 300 300 301 302 302 302 302 301 300 301
298 297 298 299 299 299 299 299 298 298 298 298 298 298 297 297 296 296 297 298 298 296 300 300 300 300 299 301 301 301 301 302
298 297 297 298 298 298 297 297 297 297 298 297 296 296 296 295 295 296 297 297 297 297 297 299 299 299 300 298 298 298 297 297
297 296 296 297 296 296 296 296 296 296 296 295 295 294 294 295 296 295 295 296 296 297 297 297 299 298 297 296 296 296 296 297
Wind_Speed
22 27 26 26 27 27 22 19 16 14 11 11 8 6 7 6 6 7 7 8 11 16 22 24 26 27 24 25 28 31 30 29
26 29 27 24 24 25 24 24 19 17 14 11 7 6 4 7 7 8 12 13 15 14 16 17 18 21 25 26 27 30 28 28
17 27 26 24 23 22 22 20 16 14 12 10 8 8 7 7 10 9 12 16 16 18 19 21 23 24 25 22 22 21 22 24
13 17 25 23 22 20 18 16 15 14 12 10 10 10 12 14 15 17 18 18 14 16 20 22 21 21 22 23 22 23 23 23
12 15 20 21 18 17 16 15 14 13 13 13 12 11 14 16 17 18 20 21 21 22 24 21 17 18 19 20 20 22 23 21
14 15 23 22 19 17 15 13 12 12 11 11 12 13 14 16 18 20 21 20 18 20 22 20 18 18 18 20 22 18 19 20
13 20 27 22 18 17 15 12 10 9 10 12 14 15 15 16 16 18 19 20 19 18 19 18 16 19 22 26 24 23 22 21
12 10 15 18 18 17 13 10 10 10 11 12 13 14 12 11 12 13 14 16 17 19 21 22 22 22 23 22 22 23 25 27
11 12 20 21 18 15 12 9 8 8 8 9 13 13 11 9 10 14 15 13 13 16 18 19 21 23 27 25 23 22 20 27
11 14 22 19 16 11 9 8 9 10 10 12 14 13 14 15 16 16 18 13 14 10 15 19 19 23 25 26 26 20 19 18
11 12 18 16 15 14 11 9 5 5 7 8 11 13 14 15 14 14 17 20 20 22 22 21 22 21 22 25 23 24 17 11
10 11 18 19 16 13 10 5 2 6 10 12 14 17 18 18 19 21 24 26 27 26 26 26 26 27 25 25 26 22 19 18
9 13 16 16 13 8 4 3 6 9 11 14 15 18 21 23 23 24 25 27 28 29 30 30 31 32 33 30 26 18 15 15
8 9 12 11 8 7 9 11 10 13 16 18 20 22 24 25 26 29 30 32 32 34 35 35 36 36 35 32 30 22 19 19
7 7 9 13 13 10 10 11 13 15 16 19 21 22 23 22 20 20 23 24 25 26 26 26 26 29 33 32 25 21 19 22
8 8 7 12 11 10 9 9 10 11 13 15 17 20 21 22 26 28 30 31 30 31 31 30 24 21 22 18 9 11 20 28
11 8 10 10 7 6 7 10 11 12 13 16 14 17 23 25 28 29 29 26 29 32 29 26 25 17 18 20 14 16 17 21
9 8 9 9 11 12 12 10 11 13 13 13 19 22 23 25 26 25 25 29 31 30 29 29 26 24 23 21 24 21 23 25
8 10 13 16 14 12 9 10 12 13 15 17 19 22 22 22 21 24 27 27 29 29 29 29 28 25 26 29 27 28 26 28
Wind_Direction
115 110 106 104 98 97 114 123 132 129 118 107 97 74 60 51 21 359 347 325 304 286 275 276 278 276 274 269 269 271 266 265
115 113 112 109 104 103 101 109 111 121 117 119 104 59 40 18 2 345 334 328 324 314 306 300 299 295 292 291 293 285 276 274
127 116 115 109 107 105 100 97 95 89 84 68 50 40 19 360 354 351 342 330 328 325 322 320 315 310 307 303 302 290 280 276
134 122 119 116 110 103 97 91 83 75 63 51 29 14 3 356 345 342 341 345 333 328 323 317 312 313 314 315 310 304 294 294
138 133 131 124 116 111 101 95 90 68 52 39 23 2 343 340 332 328 329 331 327 326 327 317 307 301 298 301 307 310 314 310
144 145 139 133 128 118 115 101 79 70 52 35 19 0 348 342 341 340 340 338 333 330 328 312 308 304 303 307 308 300 293 290
152 148 144 141 131 119 115 102 73 43 18 9 2 351 340 334 334 332 334 330 333 335 336 335 331 327 326 324 314 306 302 296
141 142 131 134 125 114 104 84 59 33 16 4 351 340 325 322 331 346 348 343 339 337 329 327 326 324 324 318 313 313 320 309
133 132 126 125 123 119 107 87 70 34 5 344 335 339 337 343 348 341 340 339 334 334 331 336 335 335 329 316 311 304 297 312
129 128 133 133 129 116 99 80 52 32 6 339 332 334 333 330 331 332 332 330 326 327 325 325 328 330 325 314 312 319 306 280
139 140 135 131 126 118 103 88 68 15 2 358 345 334 330 326 324 321 319 315 312 313 312 314 315 317 311 311 308 312 301 297
140 137 130 125 123 119 118 112 24 340 331 330 324 321 318 323 319 315 315 310 306 301 303 305 304 303 300 295 297 299 293 302
144 139 126 122 121 115 95 23 358 358 350 343 339 331 326 322 319 317 317 317 311 302 301 299 299 299 298 291 287 279 272 273
121 110 118 125 112 73 60 48 21 358 345 335 328 325 323 322 323 320 316 314 313 311 308 307 306 304 293 288 272 271 259 279
123 119 103 101 97 75 57 38 22 7 354 345 340 340 343 342 346 351 351 347 347 341 336 337 327 315 304 290 279 274 277 289
129 116 120 104 87 72 39 22 22 16 11 7 356 346 344 340 337 335 332 329 330 331 331 328 344 348 326 306 303 315 321 302
124 122 108 98 81 70 48 41 26 16 2 352 360 346 338 337 334 330 329 328 326 327 325 323 316 324 355 321 328 313 285 270
123 119 114 94 79 78 62 39 17 10 15 6 349 345 339 332 325 324 322 321 323 323 320 317 316 314 304 284 303 310 301 294
118 113 100 92 78 65 50 40 34 20 4 358 347 339 330 330 328 326 321 322 319 320 324 319 316 318 316 314 313 308 299 290